Weather History for Orange, MA

Change the Weather History Date:

Sunday, February 24, 2013

  Actual Average Record
Temperature  
Mean Temperature 34 °F -  
Max Temperature 35 °F 35 °F 44 °F (2002)
Min Temperature 32 °F 16 °F -2 °F (2008)
Degree Days  
Heating Degree Days 32    
Moisture  
Dew Point 32 °F    
Average Humidity 92    
Maximum Humidity 100    
Minimum Humidity 87    
Precipitation  
Precipitation 0.33 in - - ()
Sea Level Pressure  
Sea Level Pressure 29.79 in    
Wind  
Wind Speed 5 mph (NNW)    
Max Wind Speed 13 mph    
Max Gust Speed -    
Visibility 4 miles    
Events Fog , Rain , Snow    
Averages and records for this station are not official NWS values.
T = Trace of Precipitation, MM = Missing Value Source: NWS Daily Summary

Daily Weather History Graph

Daily Weather History Graph

Search for Another Location

Airport:

Trip Planner

Search our weather history database for the weather conditions in past years. The results will help you decide how hot, cold, wet, or windy it might be!

Date:

Astronomy

Feb. 24, 2013 Rise Set
Actual Time 6:32 AM EST 5:32 PM EST
Civil Twilight 6:03 AM EST 6:01 PM EST
Nautical Twilight 5:31 AM EST 6:34 PM EST
Astronomical Twilight 4:58 AM EST 7:06 PM EST
Moon 4:41 PM EST (2/24) 5:28 AM EST (2/24)
Length of Visible Light 11h 57m
Length of Day
11h 00m
Waxing Gibbous, 99% of the Moon is Illuminated
Feb 24
Waxing Gibbous
Feb 25
Full
Mar 4
Last Quarter
Mar 11
New
Mar 19
First Quarter

Hourly Weather History & Observations

Time (EST) Temp. Windchill Dew Point Humidity Pressure Visibility Wind Dir Wind Speed Gust Speed Precip Events Conditions
12:52 AM 33.1 °F 27.7 °F 30.9 °F 92% 29.89 in 10.0 mi NNW 5.8 mph - 0.00 in   Overcast
1:52 AM 33.1 °F 28.7 °F 30.9 °F 92% 29.87 in 10.0 mi NNW 4.6 mph - 0.02 in Rain Light Rain
2:52 AM 33.1 °F 30.0 °F 30.9 °F 92% 29.84 in 6.0 mi North 3.5 mph - 0.01 in Rain Light Rain
3:05 AM 33.8 °F 30.8 °F 32.0 °F 93% 29.82 in 7.0 mi NNW 3.5 mph - 0.01 in Rain Light Rain
3:52 AM 33.1 °F 28.7 °F 32.0 °F 96% 29.83 in 10.0 mi NNW 4.6 mph - 0.01 in   Overcast
4:52 AM 33.1 °F 26.9 °F 32.0 °F 96% 29.82 in 10.0 mi NNW 6.9 mph - N/A   Overcast
5:52 AM 33.1 °F 28.7 °F 32.0 °F 96% 29.81 in 10.0 mi NNW 4.6 mph - N/A   Overcast
6:30 AM 33.8 °F 29.6 °F 32.0 °F 93% 29.80 in 1.8 mi NNE 4.6 mph - 0.02 in Snow Light Snow
6:37 AM 33.8 °F 30.8 °F 32.0 °F 93% 29.79 in 1.0 mi North 3.5 mph - 0.03 in Snow Light Snow
6:52 AM 33.1 °F 27.7 °F 32.0 °F 96% 29.80 in 0.5 mi North 5.8 mph - 0.06 in Fog , Snow Snow
7:09 AM 33.8 °F 28.6 °F 32.0 °F 93% 29.78 in 1.0 mi NNW 5.8 mph - 0.02 in Snow Light Snow
7:17 AM 33.8 °F 27.7 °F 32.0 °F 93% 29.77 in 1.5 mi NNW 6.9 mph - 0.02 in Snow Light Snow
7:27 AM 33.8 °F 27.7 °F 32.0 °F 93% 29.78 in 3.0 mi NNW 6.9 mph - 0.02 in Snow Light Snow
7:52 AM 33.1 °F 25.5 °F 32.0 °F 96% 29.79 in 10.0 mi NNW 9.2 mph - 0.02 in   Overcast
8:52 AM 34.0 °F 27.2 °F 32.0 °F 92% 29.78 in 3.0 mi North 8.1 mph - 0.01 in Snow Light Snow
9:03 AM 33.8 °F 27.7 °F 32.0 °F 93% 29.76 in 3.0 mi North 6.9 mph - 0.01 in Snow Light Snow
9:40 AM 33.8 °F 27.7 °F 32.0 °F 93% 29.76 in 3.0 mi North 6.9 mph - 0.01 in Snow Light Snow
9:52 AM 34.0 °F 27.2 °F 32.0 °F 92% 29.78 in 3.0 mi North 8.1 mph - 0.02 in Snow Light Snow
10:07 AM 33.8 °F 26.4 °F 32.0 °F 93% 29.75 in 2.5 mi North 9.2 mph - 0.00 in Snow Light Snow
10:20 AM 33.8 °F 26.4 °F 32.0 °F 93% 29.75 in 4.0 mi North 9.2 mph - 0.00 in Snow Light Snow
10:52 AM 34.0 °F 26.6 °F 32.0 °F 92% 29.77 in 10.0 mi North 9.2 mph - 0.00 in   Overcast
11:26 AM 33.8 °F 26.4 °F 32.0 °F 93% 29.74 in 2.0 mi North 9.2 mph - 0.01 in Snow Light Snow
11:34 AM 33.8 °F 27.0 °F 30.2 °F 87% 29.74 in 1.5 mi North 8.1 mph - 0.01 in Snow Light Snow
11:52 AM 34.0 °F 26.6 °F 30.9 °F 89% 29.76 in 2.0 mi North 9.2 mph - 0.01 in Snow Light Snow
11:59 AM 33.8 °F 27.0 °F 30.2 °F 87% 29.74 in 3.0 mi North 8.1 mph - 0.00 in Snow Light Snow
12:08 PM 33.8 °F 26.4 °F 32.0 °F 93% 29.74 in 5.0 mi NNW 9.2 mph - 0.00 in Snow Light Snow
12:17 PM 33.8 °F 26.4 °F 32.0 °F 93% 29.74 in 1.8 mi NW 9.2 mph - 0.01 in Snow Light Snow
12:20 PM 33.8 °F 24.8 °F 32.0 °F 93% 29.74 in 1.0 mi NNW 12.7 mph - 0.01 in Snow Light Snow
12:31 PM 33.8 °F 28.6 °F 30.2 °F 87% 29.74 in 1.5 mi NNW 5.8 mph - 0.01 in Snow Light Snow
12:39 PM 33.8 °F 28.6 °F 32.0 °F 93% 29.74 in 3.0 mi NNW 5.8 mph - 0.01 in Snow Light Snow
12:52 PM 34.0 °F 28.8 °F 30.9 °F 89% 29.75 in 5.0 mi North 5.8 mph - 0.03 in Snow Light Snow
12:59 PM 33.8 °F 27.7 °F 32.0 °F 93% 29.73 in 2.5 mi North 6.9 mph - 0.00 in Snow Light Snow
1:14 PM 33.8 °F 28.6 °F 30.2 °F 87% 29.73 in 1.2 mi NNW 5.8 mph - 0.01 in Snow Light Snow
1:18 PM 33.8 °F 30.8 °F 32.0 °F 93% 29.73 in 0.8 mi North 3.5 mph - 0.01 in Snow Light Snow
1:25 PM 33.8 °F 29.6 °F 32.0 °F 93% 29.72 in 0.8 mi North 4.6 mph - 0.02 in Snow Light Snow
1:35 PM 33.8 °F 30.8 °F 32.0 °F 93% 29.72 in 1.2 mi NNW 3.5 mph - 0.03 in Snow Light Snow
1:43 PM 33.8 °F 28.6 °F 32.0 °F 93% 29.73 in 1.8 mi NW 5.8 mph - 0.03 in Snow Light Snow
1:48 PM 33.8 °F 29.6 °F 32.0 °F 93% 29.73 in 2.0 mi NW 4.6 mph - 0.03 in Snow Light Snow
1:52 PM 34.0 °F 31.0 °F 32.0 °F 92% 29.75 in 2.5 mi NNW 3.5 mph - 0.03 in Snow Light Snow
2:00 PM 33.8 °F 30.8 °F 33.8 °F 100% 29.72 in 3.0 mi NNW 3.5 mph - 0.01 in Snow Light Snow
2:37 PM 35.6 °F 29.2 °F 33.8 °F 93% 29.73 in 4.0 mi North 8.1 mph - 0.02 in Rain Light Rain
2:52 PM 35.1 °F 30.1 °F 32.0 °F 89% 29.75 in 5.0 mi NNE 5.8 mph - 0.02 in Rain Light Rain
3:19 PM 35.6 °F 30.7 °F 33.8 °F 93% 29.73 in 4.0 mi North 5.8 mph - 0.00 in   Overcast
3:45 PM 35.6 °F 31.7 °F 33.8 °F 93% 29.73 in 6.0 mi North 4.6 mph - 0.00 in   Overcast
3:52 PM 35.1 °F 31.0 °F 33.1 °F 92% 29.75 in 7.0 mi North 4.6 mph - 0.00 in   Overcast
3:59 PM 35.6 °F 32.8 °F 33.8 °F 93% 29.74 in 10.0 mi NNW 3.5 mph - N/A   Overcast
4:07 PM 35.6 °F 31.7 °F 33.8 °F 93% 29.74 in 10.0 mi North 4.6 mph - N/A   Overcast
4:52 PM 35.1 °F 31.0 °F 33.1 °F 92% 29.77 in 9.0 mi NE 4.6 mph - 0.01 in   Overcast
5:21 PM 33.8 °F 30.8 °F 32.0 °F 93% 29.76 in 4.0 mi NE 3.5 mph - 0.00 in Snow Light Snow
5:35 PM 33.8 °F 29.6 °F 32.0 °F 93% 29.77 in 2.5 mi NE 4.6 mph - 0.00 in Snow Light Snow
5:42 PM 33.8 °F 30.8 °F 30.2 °F 87% 29.77 in 3.0 mi NE 3.5 mph - 0.00 in Snow Light Snow
5:52 PM 33.1 °F - 32.0 °F 96% 29.79 in 3.0 mi Calm Calm - 0.00 in Snow Light Snow
6:05 PM 33.8 °F - 32.0 °F 93% 29.78 in 4.0 mi Calm Calm - 0.00 in Snow Light Snow
6:22 PM 33.8 °F - 32.0 °F 93% 29.79 in 7.0 mi Calm Calm - 0.00 in Snow Light Snow
6:32 PM 32.0 °F - 32.0 °F 100% 29.80 in 6.0 mi Calm Calm - 0.00 in Snow Light Snow
6:52 PM 33.1 °F - 32.0 °F 96% 29.83 in 3.0 mi Calm Calm - 0.01 in Snow Light Snow
6:56 PM 32.0 °F 28.7 °F 30.2 °F 93% 29.81 in 2.5 mi ENE 3.5 mph - 0.00 in Snow Light Snow
7:06 PM 33.8 °F - 32.0 °F 93% 29.81 in 3.0 mi Calm Calm - 0.00 in Snow Light Snow
7:09 PM 33.8 °F - 32.0 °F 93% 29.81 in 4.0 mi Calm Calm - 0.00 in Snow Light Snow
7:15 PM 33.8 °F - 32.0 °F 93% 29.82 in 2.5 mi Calm Calm - 0.00 in Snow Light Snow
7:25 PM 33.8 °F - 32.0 °F 93% 29.82 in 1.5 mi Calm Calm - 0.00 in Snow Light Snow
7:46 PM 32.0 °F - 30.2 °F 93% 29.83 in 1.0 mi Calm Calm - 0.01 in Snow Light Snow
7:47 PM 32.0 °F - 30.9 °F 96% 29.85 in 1.0 mi Calm Calm - 0.01 in Snow Light Snow
8:06 PM 32.0 °F - 32.0 °F 100% 29.84 in 1.2 mi Calm Calm - 0.01 in Snow Light Snow
8:35 PM 32.0 °F - 30.2 °F 93% 29.85 in 1.0 mi Calm Calm - 0.03 in Snow Light Snow
8:52 PM 33.1 °F 30.0 °F 32.0 °F 96% 29.87 in 1.2 mi West 3.5 mph - 0.04 in Snow Light Snow
8:57 PM 33.8 °F 28.6 °F 30.2 °F 87% 29.85 in 2.0 mi NW 5.8 mph - 0.01 in Snow Light Snow
9:07 PM 33.8 °F 27.7 °F 30.2 °F 87% 29.85 in 2.0 mi NW 6.9 mph - 0.01 in Snow Light Snow
9:14 PM 33.8 °F 27.0 °F 30.2 °F 87% 29.85 in 2.0 mi NW 8.1 mph - 0.01 in Snow Light Snow
9:20 PM 33.8 °F 25.8 °F 30.2 °F 87% 29.86 in 1.8 mi NW 10.4 mph - 0.01 in Snow Light Snow
9:41 PM 33.8 °F 27.7 °F 30.2 °F 87% 29.86 in 2.0 mi NW 6.9 mph - 0.01 in Snow Light Snow
9:52 PM 33.1 °F 26.9 °F 30.9 °F 92% 29.88 in 2.5 mi NNW 6.9 mph - 0.02 in Snow Light Snow
10:04 PM 32.0 °F 27.5 °F 30.2 °F 93% 29.86 in 2.0 mi NNW 4.6 mph - 0.00 in Snow Light Snow
10:20 PM 32.0 °F 24.8 °F 30.2 °F 93% 29.86 in 2.5 mi NNW 8.1 mph - 0.00 in Snow Light Snow
10:37 PM 32.0 °F 25.6 °F 30.2 °F 93% 29.87 in 3.0 mi NNW 6.9 mph - 0.00 in Snow Light Snow
10:52 PM 32.0 °F 24.8 °F 30.0 °F 92% 29.89 in 4.0 mi NW 8.1 mph - 0.00 in Snow Light Snow
11:35 PM 32.0 °F 26.4 °F 30.2 °F 93% 29.89 in 10.0 mi NW 5.8 mph - 0.00 in   Overcast
11:52 PM 32.0 °F 25.6 °F 28.9 °F 88% 29.91 in 10.0 mi NNW 6.9 mph - 0.00 in   Overcast